Date String (YYYY-MM-DD hh:mm:ss) UTC,Instrument flags,Ambient pressure (hPa),Sample flow (lpm),Bypass flow (lpm),Sample temperature (°C),Ambient temperature (°C),ASC tube jacket temperature (°C),LED temperature (°C),Box temperature (°C),Sample RH (%),Span deviation,Mass concentration (μg/m³),Mass concentration (μg/m³),Mass concentration (μg/m³)
DateTimeUTC,F1_M11,P_M11,Q1_M11,Q2_M11,T1_M11,T2_M11,T3_M11,T4_M11,T5_M11,U1_M11,ZSPAN_M11,X0_M11,X2_M11,X1_M11
2022-07-28 10:00:00,,0831.6,4.99,0.00,32.6,29.3,00.0,40.4,33.0,34.3,0000.0,0014.28,0005.90,0004.84
2022-07-28 10:01:00,,0831.7,5.01,0.00,32.6,29.3,00.0,40.5,33.0,34.3,0000.0,0013.77,0005.84,0004.81
2022-07-28 10:02:00,,0831.7,4.99,0.00,32.6,29.2,00.0,40.5,32.9,34.3,0000.0,0013.60,0005.78,0004.79
2022-07-28 10:03:00,,0831.6,5.01,0.00,32.5,28.4,00.0,40.4,32.8,34.3,0000.0,0014.10,0005.79,0004.78
2022-07-28 10:04:00,,0831.6,5.00,0.00,32.5,28.0,00.0,40.4,32.7,34.4,0000.0,0014.19,0005.72,0004.76
2022-07-28 10:05:00,,0831.7,5.00,0.00,32.3,27.9,00.0,40.4,32.5,34.5,0000.0,0014.05,0005.73,0004.75
2022-07-28 10:06:00,,0831.7,4.99,0.00,32.2,28.0,00.0,40.4,32.5,34.6,0000.0,0013.58,0005.68,0004.73
2022-07-28 10:07:00,,0831.7,5.01,0.00,32.1,28.1,00.0,40.4,32.4,34.9,0000.0,0012.84,0005.65,0004.72
2022-07-28 10:08:00,,0831.6,4.99,0.00,32.0,28.2,00.0,40.4,32.5,35.1,0000.0,0012.67,0005.66,0004.73
2022-07-28 10:09:00,,0831.7,5.01,0.00,32.1,28.3,00.0,40.3,32.6,35.0,0000.0,0012.38,0005.73,0004.75
2022-07-28 10:10:00,,0831.7,5.00,0.00,32.2,28.5,00.0,40.3,32.7,34.5,0000.0,0011.98,0005.78,0004.77
2022-07-28 10:11:00,,0831.7,5.01,0.00,32.3,28.6,00.0,40.3,32.7,34.2,0000.0,0011.59,0005.77,0004.77
2022-07-28 10:12:00,,0831.7,4.99,0.00,32.3,28.7,00.0,40.3,32.7,34.4,0000.0,0011.65,0005.81,0004.77
2022-07-28 10:13:00,,0831.7,5.00,0.00,32.3,28.8,00.0,40.3,32.7,34.7,0000.0,0012.04,0005.84,0004.77
2022-07-28 10:14:00,,0831.7,5.00,0.00,32.2,28.9,00.0,40.3,32.6,34.5,0000.0,0011.93,0005.85,0004.79
2022-07-28 10:15:00,,0831.7,5.00,0.00,32.2,28.9,00.0,40.3,32.7,34.6,0000.0,0011.78,0005.86,0004.80
2022-07-28 10:16:00,,0831.7,5.02,0.00,32.2,29.0,00.0,40.3,32.7,34.7,0000.0,0011.19,0005.86,0004.81
2022-07-28 10:17:00,,0831.7,4.99,0.00,32.1,29.1,00.0,40.4,32.7,34.6,0000.0,0012.08,0005.90,0004.81
2022-07-28 10:18:00,,0831.7,5.01,0.00,32.1,29.1,00.0,40.4,32.7,34.7,0000.0,0011.90,0005.89,0004.81
2022-07-28 10:19:00,,0831.8,5.01,0.00,32.0,29.2,00.0,40.4,32.7,34.7,0000.0,0011.86,0005.84,0004.79
2022-07-28 10:20:00,,0831.8,5.00,0.00,32.0,29.2,00.0,40.4,32.7,34.5,0000.0,0011.64,0005.75,0004.77
2022-07-28 10:21:00,,0831.8,5.01,0.00,32.0,29.3,00.0,40.3,32.7,34.6,0000.0,0011.45,0005.67,0004.76
2022-07-28 10:22:00,,0831.8,5.01,0.00,31.9,29.3,00.0,40.3,32.7,34.5,0000.0,0011.34,0005.62,0004.73
2022-07-28 10:23:00,,0831.9,4.99,0.00,31.9,29.3,00.0,40.3,32.7,34.2,0000.0,0011.07,0005.49,0004.68
2022-07-28 10:24:00,,0831.9,5.00,0.00,31.8,29.4,00.0,40.3,32.7,34.2,0000.0,0010.59,0005.40,0004.63
2022-07-28 10:25:00,,0832.0,5.02,0.00,31.8,29.4,00.0,40.3,32.8,34.0,0000.0,0010.03,0005.29,0004.56
2022-07-28 10:26:00,,0832.0,4.99,0.00,31.8,29.4,00.0,40.3,32.8,33.9,0000.0,0009.69,0005.20,0004.50
2022-07-28 10:27:00,,0831.9,5.01,0.00,31.7,28.9,00.0,40.2,32.7,33.8,0000.0,0009.42,0005.07,0004.44
2022-07-28 10:28:00,,0832.0,4.99,0.00,31.7,28.2,00.0,40.1,32.6,33.8,0000.0,0008.38,0004.95,0004.38
2022-07-28 10:29:00,,0831.9,4.99,0.00,31.6,27.9,00.0,40.1,32.4,34.0,0000.0,0008.20,0004.89,0004.32
2022-07-28 10:30:00,,0832.0,5.01,0.00,31.4,27.9,00.0,40.1,32.3,34.3,0000.0,0008.05,0004.84,0004.28
2022-07-28 10:31:00,,0831.9,4.99,0.00,31.3,28.0,00.0,40.0,32.3,34.4,0000.0,0008.06,0004.84,0004.26
2022-07-28 10:32:00,,0832.0,5.00,0.00,31.2,28.1,00.0,40.0,32.2,34.6,0000.0,0008.08,0004.85,0004.25
2022-07-28 10:33:00,,0831.9,4.99,0.00,31.2,28.2,00.0,39.9,32.2,35.1,0000.0,0008.22,0004.91,0004.25
2022-07-28 10:34:00,,0832.0,5.00,0.00,31.3,28.3,00.0,39.9,32.3,34.9,0000.0,0008.32,0004.96,0004.26
2022-07-28 10:35:00,,0832.0,5.01,0.00,31.4,28.4,00.0,39.8,32.4,34.4,0000.0,0008.35,0004.96,0004.26
2022-07-28 10:36:00,,0832.0,5.00,0.00,31.5,28.6,00.0,39.8,32.4,34.2,0000.0,0008.52,0004.98,0004.25
2022-07-28 10:37:00,,0831.9,5.00,0.00,31.5,28.7,00.0,39.8,32.4,34.2,0000.0,0008.60,0005.00,0004.26
2022-07-28 10:38:00,,0831.9,4.99,0.00,31.5,28.7,00.0,39.8,32.4,34.2,0000.0,0008.66,0005.04,0004.26
2022-07-28 10:39:00,,0832.0,5.00,0.00,31.5,28.8,00.0,39.8,32.4,34.3,0000.0,0008.74,0005.05,0004.28
2022-07-28 10:40:00,,0832.0,5.01,0.00,31.4,28.9,00.0,39.8,32.4,34.4,0000.0,0008.78,0005.06,0004.28
2022-07-28 10:41:00,,0832.0,5.00,0.00,31.4,29.0,00.0,39.8,32.4,34.3,0000.0,0008.82,0005.06,0004.29
2022-07-28 10:42:00,,0832.0,5.00,0.00,31.4,29.0,00.0,39.8,32.4,34.4,0000.0,0009.12,0005.08,0004.30
2022-07-28 10:43:00,,0832.0,5.00,0.00,31.4,29.1,00.0,39.8,32.4,34.5,0000.0,0009.28,0005.11,0004.31
2022-07-28 10:44:00,,0832.0,5.00,0.00,31.3,29.1,00.0,39.8,32.5,34.3,0000.0,0009.24,0005.09,0004.31
2022-07-28 10:45:00,,0832.0,5.02,0.00,31.3,29.1,00.0,39.8,32.5,34.3,0000.0,0009.28,0005.09,0004.30
2022-07-28 10:46:00,,0832.1,5.00,0.00,31.3,29.2,00.0,39.8,32.5,34.4,0000.0,0009.40,0005.12,0004.32
2022-07-28 10:47:00,,0832.0,4.99,0.00,31.3,29.2,00.0,39.8,32.5,34.4,0000.0,0009.79,0005.15,0004.34
2022-07-28 10:48:00,,0832.0,5.01,0.00,31.3,29.2,00.0,39.8,32.5,34.4,0000.0,0010.29,0005.18,0004.37
2022-07-28 10:49:00,,0831.9,4.99,0.00,31.3,29.3,00.0,39.8,32.5,34.3,0000.0,0010.84,0005.19,0004.39
2022-07-28 10:50:00,,0832.0,5.00,0.00,31.2,29.3,00.0,39.8,32.6,34.3,0000.0,0011.95,0005.22,0004.40
2022-07-28 10:51:00,,0832.0,5.00,0.00,31.2,29.2,00.0,39.8,32.5,34.4,0000.0,0012.41,0005.28,0004.43
2022-07-28 10:52:00,,0832.0,5.01,0.00,31.2,28.4,00.0,39.7,32.4,34.6,0000.0,0012.51,0005.31,0004.45
2022-07-28 10:53:00,,0832.0,5.00,0.00,31.1,27.9,00.0,39.7,32.3,34.7,0000.0,0012.24,0005.30,0004.44
2022-07-28 10:54:00,,0832.0,5.00,0.00,31.0,27.8,00.0,39.7,32.1,34.9,0000.0,0012.16,0005.24,0004.41
2022-07-28 10:55:00,,0832.0,4.99,0.00,30.9,27.8,00.0,39.6,32.1,34.7,0000.0,0013.25,0005.26,0004.40
2022-07-28 10:56:00,,0831.9,5.00,0.00,30.9,27.9,00.0,39.6,32.1,34.8,0000.0,0013.47,0005.23,0004.40
2022-07-28 10:57:00,,0831.9,5.00,0.00,30.9,28.1,00.0,39.6,32.1,34.9,0000.0,0013.56,0005.24,0004.39
2022-07-28 10:58:00,,0832.0,5.01,0.00,30.9,28.2,00.0,39.5,32.2,34.5,0000.0,0013.75,0005.25,0004.39
2022-07-28 10:59:00,,0832.0,5.01,0.00,31.0,28.3,00.0,39.5,32.2,34.5,0000.0,0013.46,0005.26,0004.37
